Skip Page Navigation
NASA JPL Caltech
NASA Logo - Jet Propulsion Laboratory + View the NASA Portal
+ Center for Near-Earth Object Studies
JPL Home Earth Solar System Stars & Galaxies Technology
JPL Solar System Dynamics
BODIES ORBITS EPHEMERIDES TOOLS PHYSICAL DATA DISCOVERY FAQ SITE MAP
JPL Small-Body Database Browser
Search: [ help ]  
249563 (2233 T-3)
Classification: Main-belt Asteroid          SPK-ID: 2249563
Ephemeris | Orbit Diagram | Orbital Elements | Mission Design | Physical Parameters | Discovery Circumstances ]

[ show orbit diagram ]
Orbital Elements at Epoch 2459200.5 (2020-Dec-17.0) TDB
Reference: JPL 14 (heliocentric ecliptic J2000)
 Element Value Uncertainty (1-sigma)   Units 
e .2288089623079843 9.0058e-08  
a 2.390137353953627 1.1924e-08 au
q 1.843252506221946 2.1924e-07 au
i 2.128138281498846 5.5181e-06 deg
node 312.8216667078459 0.0002032 deg
peri 72.96666827846873 0.00020356 deg
M 239.6177502825003 1.2441e-05 deg
tp 2459651.828407980020
(2022-Mar-13.32840798)
4.8901e-05 TDB
period 1349.685915108697
3.70
1.01e-05
2.765e-08
d
yr
n .2667287225643215 1.9961e-09 deg/d
Q 2.937022201685307 1.4653e-08 au
  Orbit Determination Parameters
   # obs. used (total)      290  
   data-arc span      15538 days (42.54 yr)  
   first obs. used      1977-10-07  
   last obs. used      2020-04-22  
   planetary ephem.      DE441  
   SB-pert. ephem.      SB441-N16  
   condition code      0  
   norm. resid. RMS      .59635  
   source      ORB  
   producer      Otto Matic  
   solution date      2021-Apr-14 02:07:58  

Additional Information
 Earth MOID = .847482 au 
 Jupiter MOID = 2.52655 au 
 T_jup = 3.496 
[ show covariance matrix ]

Ephemeris | Orbit Diagram | Orbital Elements | Mission Design | Physical Parameters | Discovery Circumstances ]

Physical Parameter Table
Parameter Symbol Value Units Sigma Reference Notes
absolute magnitude H 17.48   n/a E2021B55  

249563 (2233 T-3)          Discovered 1977-Oct-16 by van Houten, C. J., van Houten-Groeneveld, I., Gehrels, T. at Palomar
Reference: 20100824/Numbers.arcLast Updated: 2010-08-27

Alternate Designations
 2233 T-3 = 1997 CS22 = 2003 UU250 
Ephemeris | Orbit Diagram | Orbital Elements | Mission Design | Physical Parameters | Discovery Circumstances ]
ABOUT SSD CREDITS/AWARDS PRIVACY/COPYRIGHT GLOSSARY LINKS
FirstGov 2021-Apr-21 22:02 UT
(server date/time)  
NASA Home Page
Site Manager:   Ryan S. Park
Webmaster  Alan B. Chamberlin